User: anonymous   Login
Location: Innerarity Island Observatory
(30.3139°N, 87.4867°W)
Time: 22:20:20
(UTC-05:00)
Language:

JAS-2 - Orbit

View from above orbital plane
View from above orbital plane
View from above satellite
View from above satellite

Ground track
Ground track

The orbit data is extracted from the following two-line orbital elements,

1 24278U 96046B   16175.82578048 +.00000018 +00000-0 +54165-4 0  9994
2 24278 098.5856 100.1743 0350295 185.2856 174.4545 13.53068234980159
Epoch (UTC): 23 June 2016 19:49:07
Eccentricity: 0.0350295
inclination: 98.5856°
perigee height: 800 km
apogee height: 1321 km
right ascension of ascending node: 100.1743°
argument of perigee: 185.2856°
revolutions per day: 13.53068234
mean anomaly at epoch: 174.4545°
orbit number at epoch: 98015

The dashed part of the orbit path shows where the satellite is in the earth's shadow,  

DLR